| time (UTC) | temp F | wind direction | speed MPH | gust MPH | rain 1hr in | rain 24hr in | rain mn in | humidity % | barometer mb |
| 20260506213014 | 59 | 190 | 0.0 | 4.0 | 0.03 | 0.20 | 0.20 | 81 | 1005.4 |
| 20260506213004 | 60 | 191 | 0.0 | 4.0 | 0.03 | 0.20 | 0.20 | 81 | 1005.2 |
| 20260506212503 | 60 | 191 | 0.0 | 2.0 | 0.05 | 0.20 | 0.20 | 81 | 1005.1 |
| 20260506212004 | 60 | 191 | 0.0 | 4.0 | 0.07 | 0.20 | 0.20 | 81 | 1005.1 |
| 20260506211512 | 59 | 190 | 0.0 | 4.0 | 0.07 | 0.20 | 0.20 | 81 | 1005.2 |
| 20260506211503 | 60 | 191 | 0.0 | 4.0 | 0.07 | 0.20 | 0.20 | 81 | 1005.1 |
| 20260506211003 | 59 | 190 | 0.0 | 4.0 | 0.08 | 0.20 | 0.20 | 81 | 1005.0 |
| 20260506210504 | 59 | 191 | 0.0 | 4.0 | 0.07 | 0.19 | 0.19 | 81 | 1005.1 |
| 20260506210014 | 59 | 190 | 0.0 | 4.0 | 0.06 | 0.18 | 0.18 | 81 | 1005.3 |
| 20260506210003 | 59 | 190 | 0.0 | 4.0 | 0.06 | 0.18 | 0.18 | 81 | 1005.2 |
| 20260506205503 | 59 | 191 | 0.0 | 4.0 | 0.06 | 0.18 | 0.18 | 81 | 1005.1 |
| 20260506205004 | 59 | 191 | 0.0 | 2.0 | 0.07 | 0.18 | 0.18 | 81 | 1005.2 |
| 20260506204512 | 59 | 190 | 0.0 | 1.0 | 0.08 | 0.18 | 0.18 | 81 | 1005.4 |
| 20260506204503 | 59 | 191 | 0.0 | 1.0 | 0.09 | 0.18 | 0.18 | 81 | 1005.3 |
| 20260506204003 | 59 | 191 | 0.0 | 1.0 | 0.09 | 0.18 | 0.18 | 81 | 1005.3 |
| 20260506203504 | 59 | 191 | 0.0 | 3.0 | 0.08 | 0.17 | 0.17 | 81 | 1005.3 |
| 20260506203012 | 59 | 190 | 0.0 | 4.0 | 0.08 | 0.16 | 0.16 | 81 | 1005.6 |
| 20260506203003 | 59 | 191 | 0.0 | 4.0 | 0.08 | 0.16 | 0.16 | 81 | 1005.5 |
| 20260506202003 | 60 | 191 | 0.0 | 6.0 | 0.05 | 0.13 | 0.13 | 81 | 1005.5 |
| 20260506201513 | 59 | 190 | 0.0 | 6.0 | 0.06 | 0.13 | 0.13 | 81 | 1005.8 |
| 20260506201504 | 60 | 191 | 0.0 | 6.0 | 0.06 | 0.13 | 0.13 | 81 | 1005.5 |
| 20260506201003 | 60 | 191 | 0.0 | 3.0 | 0.05 | 0.12 | 0.12 | 81 | 1005.5 |
| 20260506200503 | 60 | 190 | 0.0 | 3.0 | 0.05 | 0.12 | 0.12 | 81 | 1005.6 |
| 20260506200014 | 59 | 190 | 0.0 | 2.0 | 0.05 | 0.12 | 0.12 | 81 | 1005.7 |
| 20260506200004 | 60 | 191 | 0.0 | 2.0 | 0.05 | 0.12 | 0.12 | 81 | 1005.5 |
| 20260506195503 | 60 | 191 | 0.0 | 3.0 | 0.05 | 0.12 | 0.12 | 80 | 1005.8 |
| 20260506194513 | 60 | 190 | 0.0 | 7.0 | 0.02 | 0.09 | 0.09 | 80 | 1006.0 |
| 20260506194504 | 60 | 191 | 1.0 | 7.0 | 0.02 | 0.09 | 0.09 | 80 | 1005.9 |
| 20260506194004 | 60 | 191 | 0.0 | 7.0 | 0.03 | 0.09 | 0.09 | 80 | 1005.9 |
| 20260506193503 | 61 | 191 | 0.0 | 3.0 | 0.03 | 0.08 | 0.08 | 80 | 1005.9 |
| 20260506193012 | 60 | 190 | 0.0 | 3.0 | 0.03 | 0.08 | 0.08 | 80 | 1006.1 |
| 20260506193004 | 61 | 191 | 0.0 | 3.0 | 0.03 | 0.08 | 0.08 | 80 | 1006.0 |
| 20260506192504 | 61 | 191 | 0.0 | 3.0 | 0.03 | 0.08 | 0.08 | 80 | 1005.9 |
| 20260506192003 | 61 | 191 | 0.0 | 3.0 | 0.03 | 0.08 | 0.08 | 80 | 1006.0 |
| 20260506191513 | 61 | 190 | 0.0 | 0.0 | 0.02 | 0.07 | 0.07 | 80 | 1006.1 |
| 20260506191504 | 62 | 0 | 0.0 | 0.0 | 0.02 | 0.07 | 0.07 | 80 | 1006.0 |
| 20260506191003 | 62 | 0 | 0.0 | 0.0 | 0.02 | 0.07 | 0.07 | 80 | 1006.0 |
| 20260506190503 | 62 | 191 | 0.0 | 2.0 | 0.03 | 0.07 | 0.07 | 80 | 1006.0 |
| 20260506190012 | 61 | 190 | 0.0 | 2.0 | 0.03 | 0.07 | 0.07 | 80 | 1006.1 |
| 20260506190004 | 62 | 191 | 0.0 | 2.0 | 0.03 | 0.07 | 0.07 | 80 | 1006.0 |
| 20260506185504 | 62 | 191 | 0.0 | 2.0 | 0.03 | 0.07 | 0.07 | 80 | 1006.0 |
| 20260506185003 | 62 | 190 | 0.0 | 2.0 | 0.04 | 0.07 | 0.07 | 80 | 1006.1 |
| 20260506184512 | 61 | 190 | 0.0 | 4.0 | 0.04 | 0.07 | 0.07 | 80 | 1006.1 |
| 20260506184504 | 61 | 190 | 0.0 | 2.0 | 0.04 | 0.07 | 0.07 | 80 | 1006.0 |
| 20260506184003 | 61 | 191 | 0.0 | 1.0 | 0.04 | 0.06 | 0.06 | 80 | 1006.1 |
| 20260506183504 | 61 | 0 | 0.0 | 0.0 | 0.04 | 0.05 | 0.05 | 80 | 1006.3 |
| 20260506183012 | 61 | 190 | 0.0 | 1.0 | 0.04 | 0.05 | 0.05 | 80 | 1006.4 |
| 20260506183004 | 61 | 0 | 0.0 | 0.0 | 0.04 | 0.05 | 0.05 | 80 | 1006.2 |
| 20260506182004 | 61 | 191 | 0.0 | 4.0 | 0.05 | 0.05 | 0.05 | 79 | 1005.8 |
| 20260506181513 | 61 | 190 | 0.0 | 4.0 | 0.05 | 0.05 | 0.05 | 79 | 1005.8 |
| 20260506181003 | 62 | 191 | 0.0 | 3.0 | 0.04 | 0.04 | 0.04 | 78 | 1006.0 |
| 20260506180503 | 62 | 191 | 0.0 | 3.0 | 0.04 | 0.04 | 0.04 | 78 | 1006.4 |
| 20260506180018 | 61 | 190 | 0.0 | 4.0 | 0.04 | 0.04 | 0.04 | 78 | 1006.6 |
| 20260506180005 | 62 | 191 | 0.0 | 4.0 | 0.04 | 0.04 | 0.04 | 78 | 1006.3 |
| 20260506175503 | 62 | 190 | 0.0 | 4.0 | 0.04 | 0.04 | 0.04 | 77 | 1006.4 |
| 20260506174513 | 62 | 190 | 0.0 | 6.0 | 0.03 | 0.03 | 0.03 | 75 | 1006.8 |
| 20260506174504 | 62 | 191 | 0.0 | 6.0 | 0.03 | 0.03 | 0.03 | 75 | 1006.8 |
| 20260506174003 | 63 | 190 | 0.0 | 6.0 | 0.02 | 0.02 | 0.02 | 74 | 1006.8 |
| 20260506173504 | 64 | 191 | 0.0 | 5.0 | 0.01 | 0.01 | 0.01 | 73 | 1007.0 |
| 20260506173012 | 64 | 190 | 0.0 | 4.0 | 0.01 | 0.01 | 0.01 | 72 | 1007.2 |
| 20260506172503 | 65 | 191 | 0.0 | 6.0 | 0.00 | 0.00 | 0.00 | 69 | 1007.3 |
| 20260506171518 | 66 | 190 | 0.0 | 6.0 | 0.00 | 0.00 | 0.00 | 65 | 1007.5 |
| 20260506171503 | 66 | 191 | 0.0 | 4.0 | 0.00 | 0.00 | 0.00 | 65 | 1007.4 |
| 20260506171003 | 67 | 191 | 1.0 | 6.0 | 0.00 | 0.00 | 0.00 | 64 | 1007.3 |
| 20260506170504 | 67 | 191 | 0.0 | 6.0 | 0.00 | 0.00 | 0.00 | 63 | 1007.2 |
| 20260506170013 | 67 | 190 | 0.0 | 7.0 | 0.00 | 0.00 | 0.00 | 61 | 1007.2 |
| 20260506170003 | 68 | 191 | 0.0 | 7.0 | 0.00 | 0.00 | 0.00 | 61 | 1007.1 |
| 20260506164512 | 68 | 190 | 0.0 | 9.0 | 0.00 | 0.00 | 0.00 | 58 | 1007.0 |
| 20260506164504 | 69 | 191 | 1.0 | 9.0 | 0.00 | 0.00 | 0.00 | 58 | 1006.9 |
| 20260506163020 | 68 | 190 | 0.0 | 3.0 | 0.00 | 0.00 | 0.00 | 58 | 1007.1 |
| 20260506163004 | 69 | 191 | 0.0 | 3.0 | 0.00 | 0.00 | 0.00 | 58 | 1007.1 |
| 20260506162504 | 69 | 191 | 0.0 | 4.0 | 0.00 | 0.00 | 0.00 | 59 | 1007.1 |
| 20260506162004 | 68 | 190 | 1.0 | 12.0 | 0.00 | 0.00 | 0.00 | 59 | 1007.1 |
| 20260506161520 | 68 | 190 | 0.0 | 12.0 | 0.00 | 0.00 | 0.00 | 59 | 1007.3 |
| 20260506161503 | 68 | 191 | 1.0 | 12.0 | 0.00 | 0.00 | 0.00 | 59 | 1007.2 |
| 20260506161004 | 68 | 191 | 0.0 | 5.0 | 0.00 | 0.00 | 0.00 | 60 | 1007.4 |
| 20260506160503 | 68 | 191 | 0.0 | 3.0 | 0.00 | 0.00 | 0.00 | 61 | 1007.5 |
| 20260506160015 | 67 | 190 | 0.0 | 1.0 | 0.00 | 0.00 | 0.00 | 62 | 1007.7 |
| 20260506160003 | 67 | 191 | 0.0 | 1.0 | 0.00 | 0.00 | 0.00 | 62 | 1007.7 |
| 20260506155504 | 67 | 191 | 0.0 | 1.0 | 0.00 | 0.00 | 0.00 | 62 | 1007.7 |
| 20260506155004 | 67 | 191 | 0.0 | 1.0 | 0.00 | 0.00 | 0.00 | 61 | 1007.7 |
| 20260506154512 | 67 | 190 | 0.0 | 0.0 | 0.00 | 0.00 | 0.00 | 62 | 1007.8 |
| 20260506154503 | 67 | 0 | 0.0 | 0.0 | 0.00 | 0.00 | 0.00 | 62 | 1007.7 |
| 20260506154004 | 67 | 0 | 0.0 | 0.0 | 0.00 | 0.00 | 0.00 | 63 | 1007.8 |
| 20260506153503 | 67 | 191 | 0.0 | 4.0 | 0.00 | 0.00 | 0.00 | 63 | 1007.9 |
| 20260506153011 | 66 | 190 | 0.0 | 4.0 | 0.00 | 0.00 | 0.00 | 63 | 1008.1 |
| 20260506153004 | 66 | 191 | 0.0 | 4.0 | 0.00 | 0.00 | 0.00 | 63 | 1008.0 |
| 20260506152503 | 66 | 191 | 0.0 | 4.0 | 0.00 | 0.00 | 0.00 | 64 | 1008.0 |
| 20260506152004 | 66 | 191 | 0.0 | 4.0 | 0.00 | 0.00 | 0.00 | 64 | 1007.9 |
| 20260506151512 | 65 | 190 | 0.0 | 4.0 | 0.00 | 0.00 | 0.00 | 64 | 1008.0 |
| 20260506151504 | 66 | 191 | 0.0 | 4.0 | 0.00 | 0.00 | 0.00 | 64 | 1008.1 |
| 20260506151003 | 66 | 191 | 0.0 | 5.0 | 0.00 | 0.00 | 0.00 | 65 | 1008.0 |
| 20260506150504 | 65 | 191 | 0.0 | 5.0 | 0.00 | 0.00 | 0.00 | 65 | 1008.1 |
| 20260506150012 | 65 | 190 | 0.0 | 3.0 | 0.00 | 0.00 | 0.00 | 65 | 1008.3 |
| 20260506150003 | 65 | 191 | 0.0 | 6.0 | 0.00 | 0.00 | 0.00 | 65 | 1008.3 |
| 20260506145504 | 65 | 191 | 1.0 | 10.0 | 0.00 | 0.00 | 0.00 | 65 | 1008.3 |
| 20260506145003 | 65 | 191 | 1.0 | 14.0 | 0.00 | 0.00 | 0.00 | 65 | 1008.2 |
| 20260506144512 | 65 | 190 | 1.0 | 14.0 | 0.00 | 0.00 | 0.00 | 65 | 1008.3 |
| 20260506144503 | 65 | 191 | 0.0 | 14.0 | 0.00 | 0.00 | 0.00 | 66 | 1008.2 |
| 20260506143503 | 65 | 191 | 0.0 | 7.0 | 0.00 | 0.00 | 0.00 | 66 | 1008.4 |
| 20260506143012 | 65 | 190 | 0.0 | 8.0 | 0.00 | 0.00 | 0.00 | 65 | 1008.5 |
| 20260506143003 | 65 | 191 | 1.0 | 8.0 | 0.00 | 0.00 | 0.00 | 65 | 1008.4 |
| 20260506142503 | 65 | 190 | 0.0 | 8.0 | 0.00 | 0.00 | 0.00 | 66 | 1008.4 |
| 20260506141512 | 64 | 190 | 0.0 | 5.0 | 0.00 | 0.00 | 0.00 | 67 | 1008.5 |
| 20260506141503 | 65 | 191 | 1.0 | 14.0 | 0.00 | 0.00 | 0.00 | 67 | 1008.4 |
| 20260506141003 | 65 | 191 | 1.0 | 14.0 | 0.00 | 0.00 | 0.00 | 66 | 1008.5 |
| 20260506140504 | 65 | 191 | 1.0 | 9.0 | 0.00 | 0.00 | 0.00 | 66 | 1008.5 |
| 20260506140012 | 64 | 190 | 0.0 | 7.0 | 0.00 | 0.00 | 0.00 | 66 | 1008.4 |
| 20260506140003 | 65 | 191 | 0.0 | 7.0 | 0.00 | 0.00 | 0.00 | 66 | 1008.3 |
| 20260506135503 | 65 | 191 | 0.0 | 4.0 | 0.00 | 0.00 | 0.00 | 67 | 1008.1 |
| 20260506134525 | 64 | 190 | 0.0 | 4.0 | 0.00 | 0.00 | 0.00 | 68 | 1008.3 |
| 20260506134503 | 64 | 191 | 0.0 | 4.0 | 0.00 | 0.00 | 0.00 | 68 | 1008.2 |
| 20260506134003 | 64 | 191 | 0.0 | 4.0 | 0.00 | 0.00 | 0.00 | 68 | 1008.1 |
| 20260506133504 | 64 | 191 | 0.0 | 4.0 | 0.00 | 0.00 | 0.00 | 69 | 1008.1 |
| 20260506133013 | 64 | 190 | 0.0 | 2.0 | 0.00 | 0.00 | 0.00 | 68 | 1008.1 |
| 20260506133003 | 64 | 191 | 0.0 | 2.0 | 0.00 | 0.00 | 0.00 | 68 | 1008.1 |
| 20260506132504 | 64 | 191 | 0.0 | 1.0 | 0.00 | 0.00 | 0.00 | 69 | 1008.2 |
| 20260506132003 | 64 | 191 | 0.0 | 1.0 | 0.00 | 0.00 | 0.00 | 69 | 1008.3 |
| 20260506131513 | 63 | 190 | 0.0 | 1.0 | 0.00 | 0.00 | 0.00 | 70 | 1008.5 |
| 20260506131503 | 63 | 191 | 0.0 | 1.0 | 0.00 | 0.00 | 0.00 | 70 | 1008.4 |
| 20260506131004 | 63 | 191 | 0.0 | 5.0 | 0.00 | 0.00 | 0.00 | 70 | 1008.3 |
| 20260506130503 | 63 | 190 | 0.0 | 5.0 | 0.00 | 0.00 | 0.00 | 70 | 1008.2 |
| 20260506130015 | 62 | 190 | 0.0 | 4.0 | 0.00 | 0.00 | 0.00 | 70 | 1008.4 |
| 20260506130003 | 63 | 191 | 0.0 | 4.0 | 0.00 | 0.00 | 0.00 | 70 | 1008.5 |
| 20260506125503 | 63 | 191 | 0.0 | 3.0 | 0.00 | 0.00 | 0.00 | 70 | 1008.5 |
| 20260506125003 | 63 | 191 | 0.0 | 4.0 | 0.00 | 0.00 | 0.00 | 70 | 1008.6 |
| 20260506124516 | 62 | 190 | 0.0 | 4.0 | 0.00 | 0.00 | 0.00 | 70 | 1008.7 |
| 20260506124504 | 63 | 191 | 0.0 | 4.0 | 0.00 | 0.00 | 0.00 | 70 | 1008.5 |
| 20260506124004 | 63 | 191 | 0.0 | 4.0 | 0.00 | 0.00 | 0.00 | 70 | 1008.6 |
| 20260506123012 | 62 | 190 | 0.0 | 2.0 | 0.00 | 0.00 | 0.00 | 71 | 1008.8 |
| 20260506123004 | 63 | 191 | 0.0 | 2.0 | 0.00 | 0.00 | 0.00 | 71 | 1008.7 |
| 20260506122503 | 62 | 191 | 0.0 | 5.0 | 0.00 | 0.00 | 0.00 | 71 | 1008.7 |
| 20260506122004 | 62 | 191 | 0.0 | 5.0 | 0.00 | 0.00 | 0.00 | 70 | 1008.6 |
| 20260506121513 | 62 | 190 | 0.0 | 4.0 | 0.00 | 0.00 | 0.00 | 70 | 1008.6 |
| 20260506121003 | 62 | 191 | 0.0 | 6.0 | 0.00 | 0.00 | 0.00 | 71 | 1008.7 |
| 20260506120504 | 62 | 191 | 1.0 | 6.0 | 0.00 | 0.00 | 0.00 | 70 | 1008.6 |
| 20260506120014 | 62 | 190 | 0.0 | 5.0 | 0.00 | 0.00 | 0.00 | 70 | 1008.5 |
| 20260506120004 | 62 | 191 | 0.0 | 5.0 | 0.00 | 0.00 | 0.00 | 70 | 1008.4 |
| 20260506115503 | 62 | 190 | 0.0 | 6.0 | 0.00 | 0.00 | 0.00 | 71 | 1008.5 |
| 20260506115004 | 62 | 191 | 0.0 | 6.0 | 0.00 | 0.00 | 0.00 | 71 | 1008.4 |
| 20260506114521 | 62 | 190 | 0.0 | 5.0 | 0.00 | 0.00 | 0.00 | 70 | 1008.8 |
| 20260506114503 | 62 | 191 | 0.0 | 5.0 | 0.00 | 0.00 | 0.00 | 70 | 1008.7 |
| 20260506114003 | 62 | 191 | 0.0 | 5.0 | 0.00 | 0.00 | 0.00 | 71 | 1008.5 |
| 20260506113504 | 62 | 191 | 0.0 | 6.0 | 0.00 | 0.00 | 0.00 | 72 | 1008.6 |
| 20260506113012 | 61 | 190 | 0.0 | 6.0 | 0.00 | 0.00 | 0.00 | 72 | 1008.6 |
| 20260506113003 | 61 | 191 | 1.0 | 6.0 | 0.00 | 0.00 | 0.00 | 72 | 1008.5 |
| 20260506112003 | 61 | 191 | 0.0 | 5.0 | 0.00 | 0.00 | 0.00 | 73 | 1008.6 |
| 20260506111512 | 60 | 190 | 0.0 | 6.0 | 0.00 | 0.00 | 0.00 | 73 | 1009.0 |
| 20260506111503 | 61 | 191 | 0.0 | 6.0 | 0.00 | 0.00 | 0.00 | 73 | 1008.9 |
| 20260506110503 | 60 | 191 | 0.0 | 4.0 | 0.00 | 0.00 | 0.00 | 73 | 1009.0 |
| 20260506110016 | 60 | 190 | 0.0 | 4.0 | 0.00 | 0.00 | 0.00 | 73 | 1009.0 |
| 20260506110003 | 60 | 191 | 0.0 | 3.0 | 0.00 | 0.00 | 0.00 | 73 | 1009.0 |
| 20260506105503 | 60 | 190 | 0.0 | 3.0 | 0.00 | 0.00 | 0.00 | 73 | 1008.9 |
| 20260506105003 | 60 | 191 | 0.0 | 3.0 | 0.00 | 0.00 | 0.00 | 73 | 1009.0 |
| 20260506104512 | 60 | 190 | 0.0 | 5.0 | 0.00 | 0.00 | 0.00 | 73 | 1009.1 |
| 20260506103503 | 60 | 191 | 0.0 | 2.0 | 0.00 | 0.00 | 0.00 | 73 | 1008.9 |
| 20260506103020 | 59 | 190 | 0.0 | 1.0 | 0.00 | 0.00 | 0.00 | 74 | 1008.9 |
| 20260506103003 | 60 | 191 | 0.0 | 4.0 | 0.00 | 0.00 | 0.00 | 74 | 1008.8 |
| 20260506102504 | 60 | 190 | 0.0 | 4.0 | 0.00 | 0.00 | 0.00 | 74 | 1008.7 |
| 20260506102003 | 60 | 191 | 0.0 | 3.0 | 0.00 | 0.00 | 0.00 | 74 | 1008.7 |
| 20260506101511 | 59 | 190 | 0.0 | 3.0 | 0.00 | 0.00 | 0.00 | 74 | 1008.8 |
| 20260506101004 | 60 | 191 | 1.0 | 2.0 | 0.00 | 0.00 | 0.00 | 73 | 1008.6 |
| 20260506100050 | 59 | 190 | 0.0 | 4.0 | 0.00 | 0.00 | 0.00 | 73 | 1008.7 |
| 20260506094550 | 59 | 190 | 0.0 | 3.0 | 0.00 | 0.00 | 0.00 | 73 | 1008.8 |
| 20260506093053 | 59 | 190 | 0.0 | 3.0 | 0.00 | 0.00 | 0.00 | 72 | 1008.8 |
| 20260506091548 | 59 | 190 | 0.0 | 0.0 | 0.00 | 0.00 | 0.00 | 72 | 1008.8 |
| 20260506090046 | 60 | 190 | 0.0 | 0.0 | 0.00 | 0.00 | 0.00 | 71 | 1008.8 |
| 20260506084545 | 60 | 190 | 0.0 | 3.0 | 0.00 | 0.00 | 0.00 | 71 | 1009.0 |
| 20260506083055 | 60 | 190 | 0.0 | 4.0 | 0.00 | 0.00 | 0.00 | 70 | 1008.9 |
| 20260506081548 | 60 | 190 | 0.0 | 6.0 | 0.00 | 0.00 | 0.00 | 70 | 1009.0 |
| 20260506073039 | 60 | 190 | 0.0 | 1.0 | 0.00 | 0.00 | 0.00 | 68 | 1008.9 |
| 20260506071537 | 61 | 190 | 0.0 | 0.0 | 0.00 | 0.00 | 0.00 | 68 | 1008.9 |
| 20260506061537 | 62 | 190 | 0.0 | 3.0 | 0.00 | 0.00 | 0.00 | 65 | 1008.6 |
| 20260506044522 | 64 | 190 | 0.0 | 8.0 | 0.00 | 0.00 | 0.00 | 58 | 1008.8 |
| 20260506043019 | 63 | 190 | 0.0 | 3.0 | 0.00 | 0.00 | 0.00 | 57 | 1008.8 |
| 20260506041519 | 64 | 190 | 0.0 | 5.0 | 0.00 | 0.00 | 0.00 | 57 | 1008.9 |
| 20260506040021 | 64 | 190 | 0.0 | 2.0 | 0.00 | 0.00 | 0.00 | 57 | 1009.0 |
| 20260506034515 | 64 | 190 | 0.0 | 4.0 | 0.00 | 0.00 | 0.00 | 56 | 1009.2 |
| 20260506033016 | 64 | 190 | 1.0 | 9.0 | 0.00 | 0.00 | 0.00 | 55 | 1009.2 |
| 20260506031521 | 65 | 190 | 1.0 | 5.0 | 0.00 | 0.00 | 0.00 | 54 | 1009.2 |
| 20260506030015 | 65 | 190 | 0.0 | 9.0 | 0.00 | 0.00 | 0.00 | 53 | 1009.2 |
| 20260506025003 | 65 | 191 | 0.0 | 6.0 | 0.00 | 0.00 | 0.00 | 53 | 1008.9 |
| 20260506024608 | 65 | 190 | 0.0 | 6.0 | 0.00 | 0.00 | 0.00 | 53 | 1009.1 |
| 20260506024503 | 65 | 191 | 0.0 | 6.0 | 0.00 | 0.00 | 0.00 | 53 | 1008.9 |
| 20260506024004 | 65 | 191 | 0.0 | 5.0 | 0.00 | 0.00 | 0.00 | 53 | 1008.8 |
| 20260506023504 | 65 | 191 | 1.0 | 5.0 | 0.00 | 0.00 | 0.00 | 53 | 1008.9 |
| 20260506023106 | 65 | 190 | 0.0 | 6.0 | 0.00 | 0.00 | 0.00 | 53 | 1009.0 |
| 20260506022504 | 65 | 191 | 0.0 | 6.0 | 0.00 | 0.00 | 0.00 | 53 | 1008.8 |
| 20260506022004 | 65 | 191 | 0.0 | 6.0 | 0.00 | 0.00 | 0.00 | 52 | 1008.8 |
| 20260506021603 | 65 | 190 | 0.0 | 13.0 | 0.00 | 0.00 | 0.00 | 52 | 1009.0 |
| 20260506021503 | 65 | 191 | 1.0 | 13.0 | 0.00 | 0.00 | 0.00 | 52 | 1008.7 |
| 20260506021004 | 65 | 191 | 1.0 | 13.0 | 0.00 | 0.00 | 0.00 | 52 | 1008.8 |
| 20260506020503 | 65 | 191 | 1.0 | 8.0 | 0.00 | 0.00 | 0.00 | 51 | 1008.7 |
| 20260506020111 | 65 | 190 | 0.0 | 7.0 | 0.00 | 0.00 | 0.00 | 52 | 1009.0 |
| 20260506020004 | 65 | 191 | 0.0 | 7.0 | 0.00 | 0.00 | 0.00 | 52 | 1008.8 |
| 20260506015503 | 65 | 191 | 0.0 | 5.0 | 0.00 | 0.00 | 0.00 | 52 | 1008.8 |
| 20260506015004 | 66 | 191 | 0.0 | 5.0 | 0.00 | 0.00 | 0.00 | 51 | 1008.7 |
| 20260506014614 | 65 | 190 | 0.0 | 6.0 | 0.00 | 0.00 | 0.00 | 51 | 1008.9 |
| 20260506014503 | 66 | 191 | 0.0 | 5.0 | 0.00 | 0.00 | 0.00 | 50 | 1008.7 |
| 20260506013503 | 66 | 191 | 0.0 | 6.0 | 0.00 | 0.00 | 0.00 | 50 | 1008.5 |
| 20260506013105 | 66 | 190 | 0.0 | 6.0 | 0.00 | 0.00 | 0.00 | 50 | 1008.7 |
| 20260506013003 | 66 | 191 | 1.0 | 11.0 | 0.00 | 0.00 | 0.00 | 50 | 1008.4 |
| 20260506012503 | 67 | 191 | 1.0 | 11.0 | 0.00 | 0.00 | 0.00 | 50 | 1008.4 |
| 20260506012003 | 67 | 191 | 1.0 | 10.0 | 0.00 | 0.00 | 0.00 | 50 | 1008.4 |
| 20260506011630 | 66 | 190 | 0.0 | 10.0 | 0.00 | 0.00 | 0.00 | 49 | 1008.4 |
| 20260506011504 | 67 | 191 | 0.0 | 10.0 | 0.00 | 0.00 | 0.00 | 49 | 1008.2 |
| 20260506011004 | 67 | 190 | 0.0 | 3.0 | 0.00 | 0.00 | 0.00 | 49 | 1008.2 |
| 20260506010504 | 68 | 191 | 1.0 | 6.0 | 0.00 | 0.00 | 0.00 | 49 | 1008.2 |
| 20260506010103 | 67 | 190 | 1.0 | 6.0 | 0.00 | 0.00 | 0.00 | 48 | 1008.3 |
| 20260506010004 | 68 | 191 | 1.0 | 6.0 | 0.00 | 0.00 | 0.00 | 48 | 1008.1 |
| 20260506005504 | 68 | 191 | 0.0 | 6.0 | 0.00 | 0.00 | 0.00 | 49 | 1008.1 |
| 20260506004608 | 68 | 190 | 0.0 | 3.0 | 0.00 | 0.00 | 0.00 | 49 | 1008.3 |
| 20260506004504 | 68 | 191 | 0.0 | 5.0 | 0.00 | 0.00 | 0.00 | 48 | 1008.1 |
| 20260506004003 | 68 | 191 | 0.0 | 8.0 | 0.00 | 0.00 | 0.00 | 48 | 1008.1 |
| 20260506003503 | 68 | 191 | 1.0 | 8.0 | 0.00 | 0.00 | 0.00 | 48 | 1007.9 |
| 20260506003102 | 68 | 190 | 0.0 | 10.0 | 0.00 | 0.00 | 0.00 | 47 | 1008.1 |
| 20260506003003 | 69 | 191 | 0.0 | 6.0 | 0.00 | 0.00 | 0.00 | 47 | 1007.9 |
| 20260506002504 | 69 | 191 | 0.0 | 5.0 | 0.00 | 0.00 | 0.00 | 46 | 1007.8 |
| 20260506002004 | 69 | 191 | 1.0 | 10.0 | 0.00 | 0.00 | 0.00 | 46 | 1007.7 |
| 20260506001605 | 69 | 190 | 1.0 | 10.0 | 0.00 | 0.00 | 0.00 | 45 | 1007.9 |
| 20260506001503 | 69 | 191 | 1.0 | 10.0 | 0.00 | 0.00 | 0.00 | 45 | 1007.5 |
| 20260506001003 | 70 | 191 | 1.0 | 10.0 | 0.00 | 0.00 | 0.00 | 45 | 1007.5 |
| 20260506000503 | 70 | 191 | 1.0 | 10.0 | 0.00 | 0.00 | 0.00 | 45 | 1007.5 |
| 20260506000122 | 69 | 190 | 0.0 | 11.0 | 0.00 | 0.00 | 0.00 | 45 | 1007.6 |
| 20260506000004 | 70 | 191 | 1.0 | 10.0 | 0.00 | 0.00 | 0.00 | 45 | 1007.3 |
| 20260505235504 | 70 | 191 | 0.0 | 4.0 | 0.00 | 0.00 | 0.00 | 44 | 1007.2 |
| 20260505235004 | 70 | 191 | 1.0 | 10.0 | 0.00 | 0.00 | 0.00 | 43 | 1007.2 |
| 20260505234611 | 70 | 190 | 0.0 | 10.0 | 0.00 | 0.00 | 0.00 | 43 | 1007.4 |
| 20260505234503 | 71 | 191 | 1.0 | 10.0 | 0.00 | 0.00 | 0.00 | 43 | 1007.1 |
| 20260505234003 | 71 | 191 | 1.0 | 7.0 | 0.00 | 0.00 | 0.00 | 42 | 1007.0 |
| 20260505233103 | 71 | 190 | 0.0 | 2.0 | 0.00 | 0.00 | 0.00 | 41 | 1007.0 |
| 20260505233004 | 72 | 190 | 0.0 | 2.0 | 0.00 | 0.00 | 0.00 | 41 | 1006.7 |
| 20260505232504 | 72 | 191 | 1.0 | 7.0 | 0.00 | 0.00 | 0.00 | 41 | 1006.6 |
| 20260505232003 | 72 | 191 | 1.0 | 7.0 | 0.00 | 0.00 | 0.00 | 40 | 1006.6 |
| 20260505231614 | 72 | 190 | 0.0 | 7.0 | 0.00 | 0.00 | 0.00 | 40 | 1006.8 |
| 20260505231503 | 72 | 191 | 0.0 | 7.0 | 0.00 | 0.00 | 0.00 | 40 | 1006.5 |
| 20260505231004 | 73 | 191 | 1.0 | 10.0 | 0.00 | 0.00 | 0.00 | 40 | 1006.4 |
| 20260505230504 | 73 | 191 | 1.0 | 10.0 | 0.00 | 0.00 | 0.00 | 40 | 1006.4 |
| 20260505230110 | 73 | 190 | 0.0 | 6.0 | 0.00 | 0.00 | 0.00 | 39 | 1006.5 |
| 20260505225504 | 73 | 191 | 0.0 | 3.0 | 0.00 | 0.00 | 0.00 | 40 | 1006.2 |
| 20260505225003 | 74 | 191 | 0.0 | 7.0 | 0.00 | 0.00 | 0.00 | 39 | 1006.2 |
| 20260505224602 | 73 | 190 | 0.0 | 11.0 | 0.00 | 0.00 | 0.00 | 38 | 1006.4 |
| 20260505224504 | 74 | 191 | 1.0 | 7.0 | 0.00 | 0.00 | 0.00 | 38 | 1006.2 |
| 20260505224004 | 74 | 191 | 1.0 | 14.0 | 0.00 | 0.00 | 0.00 | 37 | 1006.1 |
| 20260505223504 | 74 | 191 | 1.0 | 14.0 | 0.00 | 0.00 | 0.00 | 38 | 1006.0 |
| 20260505223105 | 74 | 190 | 1.0 | 14.0 | 0.00 | 0.00 | 0.00 | 38 | 1006.2 |
| 20260505223004 | 75 | 190 | 1.0 | 9.0 | 0.00 | 0.00 | 0.00 | 37 | 1006.0 |
| 20260505222503 | 75 | 191 | 1.0 | 9.0 | 0.00 | 0.00 | 0.00 | 36 | 1005.9 |
| 20260505222003 | 76 | 191 | 1.0 | 9.0 | 0.00 | 0.00 | 0.00 | 37 | 1005.8 |
| 20260505221604 | 75 | 190 | 1.0 | 10.0 | 0.00 | 0.00 | 0.00 | 36 | 1005.9 |
| 20260505221503 | 76 | 191 | 1.0 | 10.0 | 0.00 | 0.00 | 0.00 | 36 | 1005.7 |
| 20260505221003 | 76 | 191 | 1.0 | 10.0 | 0.00 | 0.00 | 0.00 | 36 | 1005.6 |
| 20260505220503 | 76 | 191 | 1.0 | 8.0 | 0.00 | 0.00 | 0.00 | 35 | 1005.6 |
| 20260505220103 | 76 | 190 | 0.0 | 7.0 | 0.00 | 0.00 | 0.00 | 35 | 1005.7 |
| 20260505220003 | 76 | 191 | 1.0 | 7.0 | 0.00 | 0.00 | 0.00 | 35 | 1005.6 |
| 20260505215504 | 76 | 191 | 1.0 | 7.0 | 0.00 | 0.00 | 0.00 | 35 | 1005.4 |
| 20260505214603 | 76 | 190 | 1.0 | 15.0 | 0.00 | 0.00 | 0.00 | 33 | 1005.4 |
| 20260505214504 | 77 | 191 | 2.0 | 11.0 | 0.00 | 0.00 | 0.00 | 34 | 1005.3 |
| 20260505213503 | 77 | 191 | 1.0 | 16.0 | 0.00 | 0.00 | 0.00 | 34 | 1005.3 |